Wind_Speed
44 50 53 54 55 54 59 66 70 76 78 79 79 80 79 83 88 93 99 104 108 110 96 104 114 114 84 54 46 44 52 58 59 54 57 61 74 73 75 74 67 72 77 69 67
44 49 52 54 55 56 64 68 75 76 77 79 80 80 82 87 91 96 105 107 111 116 115 114 123 108 94 52 41 42 51 53 53 52 51 56 68 79 79 74 68 74 74 74 70
45 48 49 53 56 61 66 70 72 74 77 79 82 82 87 92 94 103 107 113 116 119 115 111 116 116 83 49 39 40 48 51 51 51 51 52 63 69 77 78 74 77 75 75 73
45 50 51 54 60 66 69 70 76 76 79 82 85 86 90 96 99 106 110 117 121 120 122 125 129 119 83 52 38 38 43 48 48 51 54 55 61 66 73 78 77 81 78 74 77
46 52 48 55 62 70 72 73 75 79 80 85 89 91 93 99 102 107 114 120 121 125 127 129 133 122 90 55 40 35 40 45 45 49 53 58 61 64 72 78 79 83 81 82 78
46 51 53 57 63 69 74 76 78 80 85 88 91 95 97 102 107 111 117 121 123 123 130 134 135 125 94 62 46 40 38 41 41 45 52 59 64 68 75 81 83 85 84 81 80
47 51 53 56 65 69 75 78 82 86 87 89 95 97 100 105 108 112 120 123 128 132 137 137 134 129 88 61 49 42 38 38 40 42 49 60 67 77 74 80 83 81 89 85 84
52 54 57 62 69 73 77 81 83 89 88 90 97 101 103 107 112 114 121 131 134 138 137 141 140 128 97 61 51 44 38 36 37 39 47 58 67 71 74 79 80 79 89 88 85
52 58 62 67 70 74 79 80 89 93 88 92 98 103 104 108 116 123 125 129 135 139 141 139 142 132 108 70 51 44 38 31 32 36 45 52 63 71 75 83 83 87 90 94 88
57 65 68 69 72 76 82 85 89 90 93 96 100 103 104 110 119 125 129 134 140 143 144 139 143 129 100 69 54 44 36 27 25 31 40 47 56 65 74 83 86 90 93 95 88
62 66 69 71 73 78 83 87 88 90 93 98 104 104 109 114 121 127 131 133 138 142 145 144 144 131 94 69 52 45 33 25 22 26 36 42 50 57 68 79 85 88 92 90 87
64 68 70 70 74 79 85 89 91 96 96 101 105 106 112 115 121 125 132 138 140 143 148 150 145 128 95 70 51 43 32 23 19 22 31 36 43 53 62 76 81 84 83 86 88
66 68 69 74 77 82 89 90 92 96 96 103 107 110 113 115 122 126 131 138 142 145 149 153 142 136 94 69 48 38 30 23 18 19 25 31 39 50 59 70 76 80 83 88 88
65 69 74 79 82 83 89 88 93 95 99 105 106 109 115 118 123 129 138 142 141 145 150 151 143 133 88 66 46 36 27 23 16 17 22 30 36 47 54 63 71 75 82 86 89
68 73 79 77 81 81 90 88 95 97 103 106 109 114 115 120 126 134 138 143 146 149 153 152 143 123 82 61 46 36 26 20 14 15 18 26 32 42 50 59 66 71 78 83 86
71 76 80 83 82 85 92 92 98 101 105 109 112 115 118 122 128 132 139 143 150 153 155 154 144 117 78 61 44 34 25 18 12 13 15 20 27 37 47 55 63 70 76 80 83
75 81 83 84 85 88 92 92 100 105 107 109 111 114 119 124 128 132 137 140 147 154 157 150 145 105 73 62 40 31 23 15 10 10 13 18 24 34 47 54 60 70 79 85 80
79 81 82 86 89 89 90 95 101 106 108 110 113 117 122 124 129 135 139 145 153 158 157 150 133 95 70 58 35 28 21 13 8 11 15 21 27 38 50 58 65 72 77 79 79
81 85 85 92 88 90 93 100 103 107 109 112 115 117 124 128 133 138 143 148 153 155 156 142 119 91 69 50 33 25 17 11 9 13 18 25 34 42 55 63 70 73 73 75 79
83 87 90 90 89 92 99 100 105 107 113 115 116 119 124 130 135 140 145 150 156 152 154 148 113 91 65 45 30 22 14 9 10 15 20 29 39 50 60 68 73 77 79 85 84
89 90 93 92 94 96 100 102 107 112 114 117 118 121 127 132 137 143 150 152 155 158 150 142 104 86 63 41 27 19 13 9 12 16 22 33 45 57 67 71 74 77 82 85 86
90 91 94 94 93 100 103 106 110 112 114 117 118 122 126 132 138 144 149 152 157 156 147 116 100 84 60 39 23 16 11 10 15 21 27 37 51 63 71 76 78 80 83 88 89
89 90 93 92 99 102 105 108 110 112 115 116 120 123 127 133 140 147 153 155 150 149 127 109 100 83 54 36 19 12 9 11 18 24 31 42 55 67 76 82 85 87 92 96 99
92 91 97 99 103 106 108 108 111 113 115 118 121 124 129 134 142 148 149 147 156 140 123 103 96 78 50 33 17 9 8 13 21 26 35 47 62 73 80 86 90 93 100 103 107
96 96 98 102 107 109 107 108 109 112 115 118 122 126 131 139 146 148 145 146 149 126 112 107 87 72 46 30 15 9 9 16 24 30 38 50 65 78 84 89 94 101 110 112 112
100 98 101 105 107 105 104 106 111 112 116 119 123 130 135 138 145 143 145 136 124 117 107 101 85 62 41 28 12 9 10 19 27 34 42 53 69 82 88 93 100 110 114 115 112
101 100 101 101 105 103 104 111 112 115 118 121 127 132 137 142 139 130 123 120 121 109 105 96 78 51 37 26 12 9 12 21 29 35 45 55 72 84 91 98 108 117 120 119 118
Wind_Direction
350 349 346 346 347 346 347 346 345 344 344 341 341 342 341 340 340 341 342 343 345 346 350 351 356 355 348 309 289 279 272 273 271 266 253 243 236 242 240 235 228 230 231 232 230
347 344 346 352 353 348 345 344 344 341 341 341 341 339 342 342 342 343 345 344 345 346 349 351 356 357 351 311 290 277 271 269 267 263 254 244 235 235 241 242 231 228 229 233 231
343 342 345 347 344 342 342 341 342 342 341 340 340 339 341 341 343 345 343 345 345 346 348 351 354 354 345 320 290 281 272 269 264 257 254 243 236 233 235 236 235 229 229 228 229
338 333 337 341 341 341 341 340 340 339 340 339 340 338 340 342 343 344 344 345 347 346 348 351 354 353 347 325 298 285 276 269 263 256 248 243 237 232 230 231 227 230 227 230 229
335 338 340 339 338 338 338 340 339 338 337 339 339 340 339 340 342 344 345 346 346 345 348 353 353 353 348 331 307 288 282 272 261 254 246 241 238 230 229 227 225 225 227 226 227
333 339 339 336 334 336 337 336 337 337 339 338 338 339 339 339 341 342 344 344 345 345 348 350 353 350 347 337 319 299 291 278 262 251 246 239 234 228 225 224 222 221 223 224 225
331 332 334 333 332 331 333 335 336 335 335 336 337 337 338 339 339 339 341 342 343 344 345 349 351 352 345 333 322 311 299 283 264 253 243 237 230 230 223 223 221 217 221 221 219
332 329 329 330 330 332 330 332 333 333 334 334 335 337 336 337 338 339 341 343 343 343 346 349 350 352 348 337 322 310 301 286 269 256 244 234 230 229 224 224 221 215 218 221 217
327 324 326 326 329 327 328 331 331 332 332 333 335 335 335 335 336 339 341 341 341 342 344 350 350 352 350 342 328 316 305 288 269 255 241 231 227 224 220 221 216 213 215 219 218
320 322 322 324 325 329 328 328 328 332 332 333 334 334 333 333 336 337 339 340 341 341 343 349 349 349 348 345 336 320 307 293 272 253 240 226 221 219 217 218 214 214 212 216 217
318 320 320 323 324 324 327 327 329 330 330 330 332 333 333 332 334 336 337 337 339 340 343 347 348 350 346 344 337 324 314 305 283 252 234 222 213 215 215 217 215 214 213 213 216
315 317 320 320 322 323 325 325 327 329 331 330 332 332 332 333 335 334 335 336 337 339 341 345 349 351 345 343 338 327 319 314 288 247 229 217 209 211 212 214 214 213 211 210 213
313 314 317 319 320 322 324 322 323 328 327 328 329 329 330 331 333 334 333 334 336 338 339 341 348 349 344 342 337 330 325 320 292 243 223 214 206 208 209 209 210 208 206 208 209
310 310 313 317 317 318 323 323 321 325 325 326 327 327 329 331 331 332 334 335 335 337 339 342 346 347 344 343 338 332 330 321 292 248 217 210 207 206 209 208 205 203 203 205 204
307 308 312 316 316 317 320 324 324 325 324 326 326 327 327 329 330 331 333 334 334 335 337 341 345 346 344 344 341 336 334 323 289 249 221 210 208 208 202 201 201 199 198 201 202
305 307 310 313 316 318 321 321 324 324 323 324 325 326 327 327 329 329 331 332 332 334 335 339 344 345 344 343 340 338 335 322 285 242 214 208 206 206 198 195 192 192 193 197 200
303 307 309 312 316 317 319 320 322 323 323 323 323 324 325 327 327 328 329 330 331 333 334 339 342 345 345 343 338 339 334 320 275 228 201 195 196 200 189 187 186 186 189 193 195
304 306 307 311 313 315 318 319 320 321 321 321 322 323 324 326 326 327 328 329 330 334 335 337 341 345 344 343 336 339 331 310 256 205 193 184 185 191 182 179 180 185 187 187 188
302 304 306 309 312 315 316 317 317 319 319 320 320 322 323 325 326 326 327 329 330 332 336 338 343 343 345 344 337 339 330 297 236 197 184 184 181 184 180 176 178 179 180 182 184
300 304 307 308 311 313 313 314 316 317 318 319 318 320 321 323 325 326 326 327 330 333 335 336 342 343 346 343 338 340 322 281 222 190 183 183 180 181 178 175 176 177 178 176 179
298 301 303 305 308 311 312 313 315 315 317 317 317 318 320 322 324 325 326 328 330 331 334 335 342 343 346 341 335 340 314 263 205 186 177 181 180 180 175 174 175 176 177 175 176
297 300 302 304 306 309 311 312 314 314 315 316 317 319 320 322 324 324 326 328 329 331 331 337 343 343 343 340 332 337 307 246 195 180 173 181 180 180 174 173 171 173 173 170 176
296 298 300 302 304 307 309 310 311 313 314 316 317 318 320 323 323 325 326 327 328 331 333 336 340 343 340 340 331 330 287 231 189 180 173 180 181 181 174 172 172 170 168 171 171
295 294 297 301 304 305 307 308 309 312 313 315 317 319 321 322 323 325 326 327 326 330 331 336 340 342 337 338 327 315 268 217 188 178 172 180 180 179 176 174 172 170 170 172 175
291 292 295 298 301 303 305 307 309 311 313 316 317 319 320 323 322 323 325 324 325 329 332 334 339 340 334 332 316 301 250 208 189 175 177 180 182 178 177 175 173 171 172 174 177
289 290 293 296 298 301 305 308 309 312 314 315 317 318 320 322 321 323 323 324 325 328 329 333 336 339 333 327 303 281 234 207 190 179 177 180 182 181 177 177 175 173 175 176 181
290 292 293 295 298 303 306 308 311 312 313 315 317 319 321 321 322 321 322 322 326 327 328 331 335 336 329 321 296 259 226 205 191 184 179 180 183 182 179 178 176 175 177 179 184
Height
10856 10851 10846 10839 10833 10827 10820 10813 10805 10796 10788 10779 10770 10760 10751 10741 10729 10716 10702 10686 10670 10657 10644 10631 10611 10589 10569 10553 10546 10543 10538 10541 10545 10552 10559 10569 10575 10578 10588 10601 10619 10632 10633 10640 10659
10852 10846 10840 10834 10828 10822 10815 10807 10800 10790 10781 10772 10762 10752 10742 10730 10718 10705 10686 10672 10658 10642 10629 10616 10597 10572 10555 10539 10529 10527 10523 10527 10530 10537 10541 10549 10557 10562 10574 10590 10607 10618 10619 10633 10647
10848 10842 10836 10829 10823 10817 10810 10802 10793 10784 10774 10764 10754 10743 10731 10718 10706 10691 10676 10660 10644 10624 10613 10597 10579 10559 10538 10523 10514 10511 10508 10510 10513 10516 10519 10532 10538 10549 10561 10579 10593 10601 10610 10619 10633
10844 10838 10831 10824 10817 10811 10803 10796 10786 10776 10766 10756 10745 10733 10720 10705 10691 10677 10662 10644 10626 10611 10599 10584 10562 10541 10521 10507 10501 10494 10492 10493 10497 10499 10504 10510 10521 10534 10544 10554 10575 10581 10598 10612 10621
10840 10832 10825 10818 10811 10805 10796 10788 10778 10768 10757 10746 10734 10723 10710 10696 10682 10666 10650 10633 10616 10598 10585 10568 10549 10528 10506 10492 10486 10481 10479 10478 10476 10480 10485 10491 10501 10513 10522 10534 10551 10567 10581 10592 10611
10835 10828 10820 10813 10806 10799 10790 10781 10771 10760 10748 10736 10724 10711 10698 10683 10666 10651 10639 10624 10607 10588 10568 10552 10531 10512 10491 10475 10468 10464 10462 10462 10460 10462 10466 10474 10481 10490 10501 10513 10528 10550 10562 10574 10598
10828 10822 10815 10808 10800 10792 10783 10773 10764 10753 10740 10727 10713 10700 10687 10674 10658 10643 10626 10616 10594 10570 10557 10537 10516 10500 10479 10462 10451 10446 10443 10445 10444 10442 10447 10454 10463 10466 10485 10495 10512 10533 10543 10558 10580
10820 10814 10808 10801 10793 10784 10775 10766 10756 10745 10732 10718 10704 10690 10675 10661 10648 10635 10614 10587 10571 10557 10540 10522 10506 10488 10465 10452 10440 10433 10429 10427 10426 10425 10427 10435 10443 10452 10472 10483 10501 10519 10528 10544 10564
10811 10806 10800 10793 10786 10776 10767 10757 10747 10735 10723 10711 10696 10679 10665 10647 10632 10611 10598 10587 10569 10545 10529 10510 10496 10477 10457 10440 10431 10420 10415 10412 10411 10409 10411 10418 10426 10437 10452 10463 10481 10499 10514 10526 10546
10802 10797 10790 10784 10777 10768 10760 10750 10738 10728 10713 10697 10685 10673 10657 10640 10618 10604 10587 10568 10552 10534 10520 10499 10484 10466 10442 10429 10417 10408 10402 10399 10395 10395 10396 10402 10410 10421 10434 10443 10463 10481 10497 10512 10534
10796 10789 10782 10775 10767 10760 10751 10741 10731 10715 10706 10693 10677 10662 10644 10624 10611 10590 10578 10566 10547 10528 10509 10484 10470 10455 10433 10420 10407 10398 10391 10385 10383 10383 10383 10388 10395 10406 10419 10430 10449 10469 10485 10505 10528
10788 10781 10775 10767 10760 10753 10744 10734 10720 10706 10694 10680 10666 10652 10639 10622 10605 10589 10570 10550 10536 10518 10492 10471 10459 10441 10423 10409 10395 10387 10382 10376 10373 10372 10372 10379 10386 10393 10405 10416 10435 10458 10482 10501 10522
10780 10774 10767 10759 10752 10744 10736 10724 10712 10701 10686 10672 10658 10639 10628 10616 10599 10579 10566 10543 10522 10506 10485 10467 10453 10436 10416 10400 10387 10377 10372 10367 10362 10363 10364 10368 10376 10384 10392 10404 10426 10449 10474 10490 10510
10771 10766 10760 10753 10744 10736 10726 10715 10704 10693 10680 10666 10651 10639 10621 10600 10585 10568 10542 10530 10516 10498 10479 10461 10445 10431 10408 10394 10382 10370 10364 10359 10356 10355 10357 10360 10367 10375 10387 10400 10418 10440 10463 10480 10499
10761 10756 10750 10744 10737 10728 10719 10708 10696 10684 10669 10655 10641 10621 10611 10594 10573 10552 10539 10517 10498 10484 10467 10449 10435 10417 10402 10388 10376 10365 10357 10353 10351 10349 10350 10356 10363 10372 10384 10397 10414 10436 10457 10474 10491
10752 10747 10740 10734 10726 10718 10708 10696 10684 10673 10660 10645 10628 10613 10596 10578 10564 10545 10526 10505 10485 10471 10457 10440 10423 10410 10394 10382 10371 10360 10352 10348 10347 10346 10348 10353 10361 10370 10382 10396 10411 10430 10448 10466 10484
10741 10737 10731 10724 10717 10708 10698 10688 10675 10663 10649 10636 10623 10607 10590 10572 10555 10537 10523 10506 10488 10472 10449 10429 10415 10399 10384 10374 10365 10356 10348 10345 10344 10344 10346 10352 10360 10368 10379 10393 10411 10426 10438 10453 10479
10730 10726 10719 10713 10705 10697 10688 10677 10666 10652 10638 10627 10609 10597 10580 10565 10545 10524 10510 10493 10468 10458 10439 10423 10403 10390 10376 10365 10358 10352 10346 10342 10341 10342 10344 10350 10358 10367 10377 10389 10406 10420 10437 10457 10475
10718 10714 10708 10702 10693 10686 10677 10667 10656 10643 10629 10617 10601 10586 10567 10547 10530 10512 10495 10478 10464 10450 10430 10410 10395 10382 10370 10358 10353 10347 10343 10339 10339 10341 10343 10350 10358 10367 10376 10389 10402 10419 10437 10456 10473
10707 10700 10695 10689 10683 10675 10666 10654 10643 10630 10617 10604 10589 10576 10560 10541 10521 10501 10482 10468 10452 10437 10421 10406 10388 10372 10362 10352 10347 10342 10340 10337 10337 10340 10343 10348 10358 10366 10376 10389 10403 10416 10433 10446 10469
10695 10690 10684 10677 10671 10663 10654 10642 10632 10617 10606 10592 10577 10562 10547 10527 10512 10489 10468 10460 10444 10424 10407 10395 10382 10367 10355 10347 10341 10338 10336 10335 10335 10339 10343 10348 10358 10366 10376 10388 10403 10419 10432 10450 10472
10682 10678 10673 10665 10659 10651 10641 10632 10621 10607 10595 10580 10565 10550 10535 10517 10500 10479 10461 10445 10430 10417 10400 10386 10373 10361 10348 10342 10336 10334 10333 10333 10333 10336 10342 10349 10356 10366 10377 10389 10404 10421 10436 10454 10477
10668 10664 10659 10653 10646 10639 10630 10620 10608 10596 10583 10570 10555 10540 10522 10504 10484 10467 10449 10434 10416 10403 10389 10378 10365 10353 10343 10336 10331 10329 10330 10331 10331 10334 10341 10348 10357 10367 10376 10389 10401 10418 10437 10454 10472
10657 10651 10644 10640 10632 10625 10618 10608 10595 10585 10570 10557 10541 10528 10512 10495 10472 10454 10433 10420 10404 10392 10378 10369 10358 10347 10334 10331 10326 10325 10326 10329 10330 10332 10339 10347 10355 10367 10378 10389 10403 10419 10436 10454 10473
10642 10636 10631 10627 10618 10611 10606 10595 10581 10571 10558 10544 10529 10517 10500 10481 10458 10441 10424 10411 10394 10382 10369 10358 10347 10339 10329 10325 10321 10320 10322 10325 10328 10331 10336 10345 10354 10365 10377 10390 10404 10419 10434 10451 10468
10625 10622 10619 10614 10604 10599 10594 10580 10568 10557 10545 10529 10519 10503 10487 10468 10447 10432 10415 10397 10383 10372 10359 10349 10339 10329 10323 10319 10316 10314 10317 10321 10325 10328 10332 10342 10353 10361 10374 10388 10402 10416 10433 10447 10460
10610 10605 10602 10598 10589 10587 10577 10565 10553 10542 10530 10521 10508 10490 10473 10454 10435 10415 10400 10382 10374 10360 10350 10341 10328 10322 10315 10312 10310 10309 10312 10316 10321 10325 10330 10339 10350 10359 10371 10384 10399 10415 10425 10433 10453